www.pogodaiklimat.ru

Погода и климат >> Архив погоды >> Индия >> Kota


ПОГОДА в Kota

  • Прогноз погоды в Kota
  • Монитор погоды в Kota
  • Климат города

АРХИВ ПОГОДЫ в Kota

Время (UTC), дата Ветер
(напр.,м/с)
 
Видим.   Явления Облачность Т
(С)
Тd
(С)
f
(%)
Тe
(С)
Тes
(С)
Комфортность P
(гПа)
Po
(гПа)
Тmin
(С)
Tmax
(С)
R
(мм)
R24
(мм)
S
(см)
09 13.09 З 1 4000 м 6/6 600 м
[Cu hum]
+32.2 +21.2 52 +40 +46 очень
душно
1004.9 1005.0
12 13.09 З 2 4000 м 3/1 600 м
[Cu hum Ci fib]
+30.4 +20.8 57 +38 +39 очень
душно
1004.3 1004.0 +32.7
15 13.09 З 2 4000 м ясно +26.2 +22.3 79 +34 +34 очень
душно
1005.8 1006.0
18 13.09 З 3 4000 м ясно +25.4 +21.8 80 +33 +33 очень
душно
1006.1 1006.0
21 13.09 З 3 4000 м ясно +25.0 +21.4 80 +32 +32 очень
душно
1005.2 1005.0
00 14.09 З 2 4000 м ясно +24.0 +21.0 83 +30 +30 очень
душно
1005.8 1006.0
03 14.09 ЮЗ 4 4000 м 3/3 600 м
[Cu hum]
+26.4 +21.6 75 +34 +36 очень
душно
1008.0 1008.0 +23.0 +32.7
06 14.09 ЮЗ 3 4000 м 5/5 600 м
[Cu hum]
+30.4 +23.1 65 +41 +48 опасность
перегрева
1009.0 1009.0
09 14.09 С 1 4000 м 6/6 600 м
[Sc diur, vesp]
+30.4 +21.8 60 +39 +45 очень
душно
1007.0 1007.0
12 14.09 СВ 1 4000 м 5/5 600 м
[Sc diur, vesp]
+30.6 +22.1 61 +40 +40 очень
душно
1006.6 1007.0 +31.3
15 14.09 штиль 0 4000 м 4/3 600 м
[Sc diur, vesp Ac trans]
+28.0 +23.7 77 +38 +38 очень
душно
1007.9 1008.0
18 14.09 штиль 0 4000 м 5/3 600 м
[Sc diur, vesp Ac trans]
+26.4 +24.1 87 +37 +37 очень
душно
1008.6 1009.0
21 14.09 штиль 0 4000 м 4/3 600 м
[Sc Ac trans]
+25.8 +23.2 86 +35 +35 очень
душно
1007.6 1008.0
00 15.09 штиль 0 4000 м 4/1 600 м
[Sc Ac trans]
+25.2 +22.2 83 +33 +33 очень
душно
1008.0 1008.0
03 15.09 З 1 4000 м ясно +27.6 +22.3 73 +36 +42 очень
душно
1010.2 1010.0 +22.7 +31.3
06 15.09 С 1 4000 м 6/6 600 м
[Cu hum]
+30.2 +21.6 60 +38 +47 очень
душно
1010.8 1011.0
09 15.09 С 1 4000 м 5/5 600 м
[Cu hum]
+31.2 +21.4 56 +39 +47 очень
душно
1009.2 1009.0
12 15.09 С 1 4000 м 3/3 600 м
[Cu hum]
+31.0 +21.2 56 +39 +40 очень
душно
1007.0 1007.0 +32.6
15 15.09 С 1 4000 м 3/0
[Ac trans]
+28.4 +21.5 66 +36 +36 очень
душно
1007.8 1008.0
18 15.09 СЗ 1 4000 м 3/0
[Ci fib]
+26.4 +21.9 76 +34 +34 очень
душно
1008.6 1009.0
21 15.09 штиль 0 4000 м 3/0
[Ci fib]
+25.6 +21.7 79 +33 +33 очень
душно
1007.6 1008.0
00 16.09 С 1 4000 м 3/0
[Ci fib]
+24.4 +21.7 85 +31 +31 очень
душно
1007.8 1008.0
03 16.09 СЗ 1 4000 м ясно +27.0 +22.6 77 +36 +41 очень
душно
1009.3 1009.0 +23.3 +32.6
06 16.09 СЗ 2 4000 м 3/3 600 м
[Cu hum]
+31.2 +20.4 53 +38 +50 очень
душно
1009.1 1009.0
09 16.09 СЗ 1 4000 м 6/4 600 м
[Sc diur, vesp Ac trans]
+32.6 +19.2 45 +38 +46 очень
душно
1006.4 1006.0
12 16.09 СЗ 1 4000 м 1/0
[Ci fib]
+33.0 +18.2 41 +37 +38 очень
душно
1005.2 1005.0 +33.7
15 16.09 штиль 0 4000 м 1/0
[Ci fib]
+27.8 +23.1 76 +37 +37 очень
душно
1006.8 1007.0
18 16.09 З 1 4000 м 1/0
[Ci fib]
+25.2 +21.9 82 +32 +32 очень
душно
1007.6 1008.0
21 16.09 З 1 4000 м 1/0
[Ci fib]
+24.6 +21.9 85 +32 +32 очень
душно
1006.9 1007.0
00 17.09 З 1 4000 м 1/0
[Ci fib]
+23.4 +20.6 84 +31 +31 очень
душно
1006.5 1007.0
03 17.09 З 1 4000 м 1/0
[]
+27.2 +21.8 72 +35 +41 очень
душно
1007.5 1008.0 +22.8 +33.7
06 17.09 СЗ 1 4000 м 1/0
[Ci fib]
+32.2 +20.9 51 +39 +59 опасность
солнечного
удара
1007.5 1008.0
09 17.09 СЗ 2 4000 м 3/3 600 м
[Cu hum]
+33.8 +19.6 43 +39 +50 очень
душно
1005.1 1005.0
12 17.09 СЗ 1 4000 м 1/0
[Ac trans]
+33.0 +19.7 46 +39 +40 очень
душно
1004.0 1004.0 +34.2
15 17.09 СЗ 1 4000 м 3/0
[Ci fib]
+29.2 +20.4 59 +36 +36 очень
душно
1005.2 1005.0
18 17.09 З 1 4000 м 1/0
[Ci fib]
+27.0 +21.3 71 +34 +34 очень
душно
1006.1 1006.0
21 17.09 З 1 4000 м 1/0
[Ci fib]
+26.0 +21.2 75 +33 +33 очень
душно
1005.4 1005.0
00 18.09 штиль 0 4000 м 3/0
[Ci fib]
+24.6 +20.8 79 +31 +31 очень
душно
1005.9 1006.0
03 18.09 СЗ 1 4000 м 4/1 600 м
[Sc Ac trans]
+28.6 +22.4 69 +37 +42 очень
душно
1007.8 1008.0 +23.7 +34.2
06 18.09 С 2 4000 м 1/1 600 м
[Cu hum]
+32.4 +19.7 47 +38 +55 опасность
солнечного
удара
1007.4 1007.0
09 18.09 СВ 1 4000 м 1/1 600 м
[Cu hum]
+33.8 +21.1 48 +41 +56 опасность
перегрева
1005.2 1005.0
12 18.09 штиль 0 4000 м 3/0
[Ac trans Ci fib]
+33.4 +19.8 45 +39 +41 очень
душно
1004.2 1004.0 +34.3
15 18.09 штиль 0 4000 м ясно +28.6 +23.4 73 +39 +39 очень
душно
1006.2 1006.0
18 18.09 З 1 4000 м ясно +26.2 +21.4 75 +33 +33 очень
душно
1006.6 1007.0
21 18.09 СЗ 1 4000 м ясно +25.0 +20.7 77 +31 +31 очень
душно
1005.9 1006.0
00 19.09 З 1 4000 м 3/3 600 м
[Sc]
+24.6 +20.6 78 +31 +31 очень
душно
1006.5 1007.0
03 19.09 ЮЗ 1 4000 м 3/1 600 м
[Cu hum Ci fib]
+28.4 +20.5 62 +35 +40 очень
душно
1008.2 1008.0 +24.0 +34.3
06 19.09 С 1 4000 м 3/3 600 м
[Cu hum]
+32.6 +20.7 50 +40 +54 опасность
солнечного
удара
1007.6 1008.0
09 19.09 С 2 4000 м 5/3 600 м
[Cu hum Ac trans]
+34.2 +19.4 42 +40 +48 очень
душно
1004.2 1004.0
12 19.09 СЗ 1 4000 м 1/0
[Ac trans]
+34.2 +19.0 41 +39 +40 очень
душно
1003.2 1003.0 +34.8
15 19.09 СЗ 1 4000 м 3/0
[Ac trans]
+29.2 +22.1 66 +38 +38 очень
душно
1004.9 1005.0
18 19.09 З 1 4000 м 4/1 600 м
[Sc Ac trans]
+26.8 +21.4 72 +34 +34 очень
душно
1006.0 1006.0
21 19.09 СЗ 1 4000 м 4/1 600 м
[Sc Ac trans]
+26.0 +21.2 75 +33 +33 очень
душно
1004.8 1005.0
00 20.09 штиль 0 4000 м 4/1 600 м
[Sc Ac trans]
+25.4 +21.2 78 +32 +32 очень
душно
1005.1 1005.0
03 20.09 штиль 0 4000 м 4/0
[Ac trans]
+29.0 +20.6 61 +36 +41 очень
душно
1006.3 1006.0 +25.0 +34.8

 

Местоположение метеостанции Kota (Rajasthan, Индия): широта 25.15 долгота 75.85 высота над уровнем моря 274 м.

В архиве по умолчанию представлена погода в Kota за последнюю неделю. Архивные данные за месяц целиком и за предыдущие месяцы, начиная с января 2011 года, Вы можете получить, выбрав интересующий диапазон дат из раскрывающегося списка и нажав кнопку "Ввод!".


*Определитесь, кто Вы:
робот инопланетянин человек

Внимание! Время в таблицах - всемирное. Для получения местного времени необходимо прибавить поправку, которая в Kota равна 5.5 ч.

Смотрите также архив погоды в соседних городах и на ближайших метеорологических станциях:

Погода в Sheopur (Madhya Pradesh, Индия) (101 км)
Погода в Bhilwara (Rajasthan, Индия) (125 км)
Погода в Chittorgarh (Rajasthan, Индия) (127 км)
Погода в Rajgarh (Madhya Pradesh, Индия) (155 км)
Погода в Guna (Madhya Pradesh, Индия) (158 км)
Погода в Shivpuri (Madhya Pradesh, Индия) (182 км)
Погода в Jaipur (Rajasthan, Индия) (186 км)
Погода в Ajmer (Rajasthan, Индия) (190 км)
Погода в Shajapur (Madhya Pradesh, Индия) (197 км)
Погода в Maharana Pratap Airport (Rajasthan, Индия) (207 км)

Пояснения к столбцам:

Ветер - указаны скорость ветра в м/с - средняя за 10 мин, порывы в срок и между сроками (в фигурных скобках) и направление, откуда дует ветер: С - северный, СВ - северо-восточный, В - восточный, ЮВ - юго-восточный, Ю - южный, ЮЗ - юго-западный, З - западный, СЗ - северо-западный.
Видимость - горизонтальная дальность видимости в метрах или километрах. При видимости от 1 до 10 км при отсутствии осадков обычно наблюдается дымка, при ухудшении видимости до 1 км и менее - туман. В сухую погоду видимость может ухудшаться дымом, пылью или мглою.
Явления - указаны атмосферные явления, наблюдавшиеся в срок или в последний час перед сроком; фигурными скобками обозначены явления, наблюдавшиеся между сроками (за 1-3 часа до срока); квадратными скобками обозначены град или гололедные отложения с указанием их диаметра в мм.
Облачность - указаны через наклонную черту общая и нижняя облачность в баллах и высота нижней границы облаков в метрах; квадратными скобками обозначены формы облаков: Ci - перистые, Cs - перисто-слоистые, Cc - перисто-кучевые, Ac - высококучевые, As - высокослоистые, Sc - слоисто-кучевые, Ns - слоисто-дождевые, Cu - кучевые, Cb - кучево-дождевые. Подробнее классификацию облаков см. в Атласе облаков (PDF).
T - Температура воздуха - температура, измеренная на высоте 2 м над землей.
Td - Температура точки росы - температура, при понижении до которой содержащийся в воздухе водяной пар достигнет насыщения.
f - Относительная влажность воздуха - влажноcть воздуха, измеренная на высоте 2 м над землей.
Te - Эффективная температура - температура, которую ощущает одетый по сезону человек в тени. Характеристика душности погоды. При расчете учитывается влияние влажности воздуха и скорости ветра на теплоощущения человека.
Tes - Эффективная температура на солнце - температура, которую ощущает человек, с поправкой на солнечный нагрев. Характеристика знойности погоды. Зависит от высоты солнца над горизонтом, облачности и скорости ветра. Ночью, в пасмурную погоду, а также при ветре 12 м/с и более поправка равна нулю.
P - Атмосферное давление - приведенное к уровню моря атмосферное давление.
Po - Атмосферное давление - измеренное на уровне метеостанции атмосферное давление.
Tmin - Минимальная температура - минимум температуры воздуха на высоте 2 м над землей.
Tmax - Максимальная температура - максимум температуры воздуха на высоте 2 м над землей.
R - Количество осадков - Количество выпавших осадков за период времени, мм. При наведении курсора мыши на число - период времени, за который выпало указанное количество осадков.
R24 - Количество осадков - Количество выпавших осадков за 24 часа, мм.
S - Снежный покров - Высота снежного покрова, см. При наведении курсора мыши на число - состояние снежного покрова и степень покрытия местности в баллах.